Погода в Порту Мониш

Португалия     32°51′56″N   17°10′02″W
темп.,
°C
ветер,
м/с
пор.,
м/с
влажн.,
%
обл.,
%
осадки,
мм/ч
давл.,
гПа
погр.,
м
24 февраля, ср
ср2400:00+15ю238641 0.0 1026260
03:00+15ююв44797 0.0 1024206
06:00+15ююз238415 0.0 1025302
09:00+15с788787 0.5 1026582
12:00+15с788289 0.6 1028718
15:00+14с897986 0.3 1027777
18:00+13ссв897784 0.3 1028743
21:00+12ссв897446 0.0 1030518
25 февраля, чт
чт2500:00+12ссв787724 0.0 1031543
03:00+12ссв677635 0.0 1030484
06:00+12ссв897520 0.0 1030708
09:00+12ссв79704 0.0 1031703
12:00+14ссв67612 0.0 10311034
15:00+15ссв67590 0.0 1030955
18:00+13ссв67681 0.1 1030759
21:00+12св67726 0.0 1031577
26 февраля, пт
пт2600:00+12св56724 0.0 1031474
03:00+11св55732 0.0 1030384
06:00+11св66732 0.0 1029468
09:00+12ссв67680 0.0 1030649
12:00+13ссв78622 0.0 1030987
15:00+14ссв78612 0.0 1029920
18:00+11ссв89713 0.0 1028699
21:00+11ссв79756 0.0 1028714
27 февраля, сб
сб2700:00+12ссв687930 0.2 1027793
03:00+13ссв688187 0.3 1026794
06:00+13св568192 0.9 1024616
09:00+14св358076 0.7 1024573
12:00+14св568079 1.4 1024528
15:00+16ссв447341 0.1 1023608
18:00+15всв347524 0.2 1022569
21:00+14св338267 0.1 1023472
28 февраля, вс
вс2800:00+14всв458056 0.1 1022305
03:00+13св448143 0.0 1021250
06:00+13св458057 0.0 1020330
09:00+14св347875 0.0 1020410
12:00+15св117575 0.1 1020634
15:00+15св337776 0.1 1018583
18:00+15св337678 0.1 1018583
21:00+14св337755 0.0 1019413